User: anonymous   Login
Location: Newport
(44.6370°N, 124.0520°W)
Time: 08:09:06
(UTC-08:00)
Language:

Hubble Space Telescope - Orbit

View from above orbital plane
View from above orbital plane
View from above satellite
View from above satellite

Ground track
Ground track

The orbit data is extracted from the following two-line orbital elements,

1 20580U 90037B   17348.91484549 +.00000480 +00000-0 +18497-4 0  9996
2 20580 028.4692 253.1646 0002543 319.8544 087.5033 15.08944020317520
Epoch (UTC): 14 December 2017 21:57:22
Eccentricity: 0.0002543
inclination: 28.4692°
perigee height: 537 km
apogee height: 541 km
right ascension of ascending node: 253.1646°
argument of perigee: 319.8544°
revolutions per day: 15.08944020
mean anomaly at epoch: 87.5033°
orbit number at epoch: 31752

The dashed part of the orbit path shows where the satellite is in the earth's shadow,  

DLR